• Em Portugal
  • Lista de países
  • Para 7 dias
  • Temperatura da água
  • Mapas de satélite
  • Mapa do tempo
  • Widgets de tempo
  • user-avatar
    Iniciar Sessão

    Previsão horária em Abrantes

    Hoje, 28 Junho, Quarta-feira

    Tempo Temperatura Precipitação Vento Pressão Humidade
    00:00 +17°C° 0 mm 3 m/s 754 mmHg 95%
    01:00 +17°C° 0 mm 3 m/s 754 mmHg 95%
    02:00 +18°C° 0 mm 3 m/s 753 mmHg 95%
    03:00 +18°C° 0,2 mm 4 m/s 753 mmHg 94%
    04:00 +19°C° 0,2 mm 4 m/s 753 mmHg 92%
    05:00 +19°C° 0,2 mm 5 m/s 753 mmHg 91%
    06:00 +19°C° 0,4 mm 5 m/s 753 mmHg 89%
    07:00 +20°C° 0,4 mm 5 m/s 753 mmHg 87%
    08:00 +20°C° 0,4 mm 6 m/s 753 mmHg 85%
    09:00 +21°C° 0,2 mm 6 m/s 753 mmHg 76%
    10:00 +22°C° 0,2 mm 6 m/s 754 mmHg 67%
    11:00 +23°C° 0,2 mm 6 m/s 754 mmHg 58%
    12:00 +24°C° 0 mm 7 m/s 754 mmHg 54%
    13:00 +24°C° 0 mm 7 m/s 754 mmHg 50%
    14:00 +26°C° 0 mm 7 m/s 754 mmHg 47%
    15:00 +24°C° 0 mm 7 m/s 754 mmHg 48%
    16:00 +23°C° 0 mm 7 m/s 754 mmHg 48%
    17:00 +22°C° 0 mm 7 m/s 754 mmHg 49%
    18:00 +20°C° 0 mm 6 m/s 754 mmHg 57%
    19:00 +17°C° 0 mm 5 m/s 755 mmHg 65%
    20:00 +15°C° 0 mm 4 m/s 755 mmHg 73%
    21:00 +16°C° 0 mm 3 m/s 755 mmHg 78%
    22:00 +14°C° 0 mm 3 m/s 755 mmHg 84%
    23:00 +13°C° 0 mm 3 m/s 756 mmHg 89%

    Amanhã, 29 Junho, Quinta-feira

    Tempo Temperatura Precipitação Vento Pressão Humidade
    00:00 +13°C° 0 mm 3 m/s 755 mmHg 90%
    01:00 +13°C° 0 mm 3 m/s 755 mmHg 91%
    02:00 +13°C° 0 mm 3 m/s 755 mmHg 92%
    03:00 +13°C° 0 mm 3 m/s 755 mmHg 91%
    04:00 +14°C° 0 mm 2 m/s 755 mmHg 89%
    05:00 +14°C° 0 mm 2 m/s 755 mmHg 88%
    06:00 +17°C° 0 mm 4 m/s 756 mmHg 75%
    07:00 +19°C° 0 mm 5 m/s 756 mmHg 63%
    08:00 +21°C° 0 mm 6 m/s 756 mmHg 51%
    09:00 +22°C° 0 mm 6 m/s 756 mmHg 47%
    10:00 +23°C° 0 mm 7 m/s 756 mmHg 44%
    11:00 +24°C° 0 mm 7 m/s 755 mmHg 40%
    12:00 +24°C° 0 mm 7 m/s 755 mmHg 39%
    13:00 +24°C° 0 mm 8 m/s 755 mmHg 38%
    14:00 +26°C° 0 mm 8 m/s 755 mmHg 37%
    15:00 +23°C° 0 mm 8 m/s 755 mmHg 41%
    16:00 +22°C° 0 mm 8 m/s 755 mmHg 44%
    17:00 +21°C° 0 mm 8 m/s 755 mmHg 47%
    18:00 +18°C° 0 mm 7 m/s 755 mmHg 55%
    19:00 +17°C° 0 mm 5 m/s 756 mmHg 63%
    20:00 +15°C° 0 mm 4 m/s 756 mmHg 72%
    21:00 +14°C° 0 mm 4 m/s 756 mmHg 76%
    22:00 +13°C° 0 mm 3 m/s 757 mmHg 80%
    23:00 +13°C° 0 mm 3 m/s 757 mmHg 85%

    Depois de amanhã, 30 Junho, Sexta-feira

    Tempo Temperatura Precipitação Vento Pressão Humidade
    00:00 +12°C° 0 mm 3 m/s 757 mmHg 86%
    01:00 +13°C° 0 mm 2 m/s 757 mmHg 88%
    02:00 +13°C° 0 mm 2 m/s 757 mmHg 90%
    03:00 +13°C° 0 mm 2 m/s 757 mmHg 89%
    04:00 +13°C° 0 mm 2 m/s 757 mmHg 88%
    05:00 +13°C° 0 mm 2 m/s 757 mmHg 86%
    06:00 +16°C° 0 mm 3 m/s 757 mmHg 75%
    07:00 +18°C° 0 mm 4 m/s 757 mmHg 64%
    08:00 +21°C° 0 mm 5 m/s 758 mmHg 53%
    09:00 +22°C° 0 mm 6 m/s 758 mmHg 49%
    10:00 +23°C° 0 mm 6 m/s 758 mmHg 45%
    11:00 +26°C° 0 mm 6 m/s 758 mmHg 41%
    12:00 +26°C° 0 mm 7 m/s 758 mmHg 41%
    13:00 +26°C° 0 mm 7 m/s 757 mmHg 40%
    14:00 +26°C° 0 mm 7 m/s 757 mmHg 39%
    15:00 +26°C° 0 mm 7 m/s 757 mmHg 42%
    16:00 +24°C° 0 mm 8 m/s 757 mmHg 44%
    17:00 +23°C° 0 mm 8 m/s 757 mmHg 46%
    18:00 +21°C° 0 mm 7 m/s 757 mmHg 54%
    19:00 +19°C° 0 mm 6 m/s 758 mmHg 61%
    20:00 +16°C° 0 mm 5 m/s 758 mmHg 69%
    21:00 +15°C° 0 mm 5 m/s 759 mmHg 73%
    22:00 +14°C° 0 mm 4 m/s 759 mmHg 77%
    23:00 +13°C° 0 mm 4 m/s 759 mmHg 82%

    1 Julho, Sábado

    Tempo Temperatura Precipitação Vento Pressão Humidade
    00:00 +13°C° 0 mm 4 m/s 759 mmHg 83%
    01:00 +12°C° 0 mm 3 m/s 759 mmHg 85%
    02:00 +12°C° 0 mm 3 m/s 758 mmHg 86%
    03:00 +12°C° 0 mm 3 m/s 758 mmHg 84%
    04:00 +12°C° 0 mm 3 m/s 759 mmHg 82%
    05:00 +12°C° 0 mm 3 m/s 759 mmHg 81%
    06:00 +15°C° 0 mm 4 m/s 759 mmHg 66%
    07:00 +19°C° 0 mm 5 m/s 759 mmHg 51%
    08:00 +22°C° 0 mm 5 m/s 759 mmHg 36%
    09:00 +25°C° 0 mm 5 m/s 759 mmHg 31%
    10:00 +27°C° 0 mm 5 m/s 759 mmHg 26%
    11:00 +29°C° 0 mm 5 m/s 759 mmHg 22%
    12:00 +30°C° 0 mm 5 m/s 758 mmHg 21%
    13:00 +32°C° 0 mm 5 m/s 758 mmHg 20%
    14:00 +33°C° 0 mm 5 m/s 758 mmHg 20%
    15:00 +32°C° 0 mm 6 m/s 757 mmHg 22%
    16:00 +30°C° 0 mm 6 m/s 757 mmHg 25%
    17:00 +30°C° 0 mm 6 m/s 757 mmHg 28%
    18:00 +27°C° 0 mm 6 m/s 757 mmHg 36%
    19:00 +23°C° 0 mm 5 m/s 758 mmHg 45%
    20:00 +21°C° 0 mm 4 m/s 758 mmHg 54%
    21:00 +20°C° 0 mm 4 m/s 758 mmHg 57%
    22:00 +19°C° 0 mm 4 m/s 758 mmHg 59%
    23:00 +18°C° 0 mm 3 m/s 758 mmHg 62%

    2 Julho, Domingo

    Tempo Temperatura Precipitação Vento Pressão Humidade
    00:00 +18°C° 0 mm 3 m/s 758 mmHg 59%
    01:00 +18°C° 0 mm 3 m/s 758 mmHg 56%
    02:00 +18°C° 0 mm 3 m/s 758 mmHg 52%
    03:00 +18°C° 0 mm 3 m/s 758 mmHg 50%
    04:00 +18°C° 0 mm 3 m/s 758 mmHg 48%
    05:00 +19°C° 0 mm 3 m/s 758 mmHg 46%
    06:00 +22°C° 0 mm 4 m/s 758 mmHg 40%
    07:00 +26°C° 0 mm 4 m/s 758 mmHg 34%
    08:00 +29°C° 0 mm 5 m/s 758 mmHg 28%
    09:00 +32°C° 0 mm 5 m/s 758 mmHg 25%
    10:00 +34°C° 0 mm 5 m/s 758 mmHg 21%
    11:00 +36°C° 0 mm 5 m/s 757 mmHg 17%
    12:00 +37°C° 0 mm 5 m/s 757 mmHg 16%
    13:00 +39°C° 0 mm 5 m/s 756 mmHg 15%
    14:00 +40°C° 0 mm 5 m/s 756 mmHg 13%
    15:00 +39°C° 0 mm 5 m/s 755 mmHg 14%
    16:00 +38°C° 0 mm 4 m/s 755 mmHg 15%
    17:00 +37°C° 0 mm 4 m/s 755 mmHg 15%
    18:00 +34°C° 0 mm 4 m/s 755 mmHg 22%
    19:00 +29°C° 0 mm 3 m/s 755 mmHg 28%
    20:00 +26°C° 0 mm 3 m/s 755 mmHg 34%
    21:00 +25°C° 0 mm 3 m/s 755 mmHg 36%
    22:00 +24°C° 0 mm 3 m/s 755 mmHg 38%
    23:00 +24°C° 0 mm 3 m/s 755 mmHg 40%

    3 Julho, Segunda-feira

    Tempo Temperatura Precipitação Vento Pressão Humidade
    00:00 +24°C° 0 mm 3 m/s 755 mmHg 39%
    01:00 +24°C° 0 mm 3 m/s 755 mmHg 38%
    02:00 +24°C° 0 mm 3 m/s 754 mmHg 37%
    03:00 +24°C° 0 mm 3 m/s 755 mmHg 38%
    04:00 +23°C° 0 mm 4 m/s 755 mmHg 39%
    05:00 +23°C° 0 mm 4 m/s 755 mmHg 40%
    06:00 +28°C° 0 mm 4 m/s 755 mmHg 35%
    07:00 +32°C° 0 mm 5 m/s 755 mmHg 30%
    08:00 +35°C° 0 mm 6 m/s 755 mmHg 25%
    09:00 +37°C° 0 mm 5 m/s 755 mmHg 22%
    10:00 +40°C° 0 mm 5 m/s 754 mmHg 18%
    11:00 +42°C° 0 mm 5 m/s 754 mmHg 15%
    12:00 +42°C° 0 mm 4 m/s 753 mmHg 14%
    13:00 +43°C° 0 mm 4 m/s 753 mmHg 13%
    14:00 +44°C° 0 mm 3 m/s 752 mmHg 12%
    15:00 +43°C° 0 mm 3 m/s 752 mmHg 12%
    16:00 +43°C° 0 mm 3 m/s 752 mmHg 13%
    17:00 +42°C° 0 mm 3 m/s 751 mmHg 13%
    18:00 +38°C° 0 mm 3 m/s 752 mmHg 19%
    19:00 +34°C° 0 mm 3 m/s 752 mmHg 24%
    20:00 +29°C° 0 mm 3 m/s 752 mmHg 30%
    21:00 +27°C° 0 mm 2 m/s 752 mmHg 37%
    22:00 +26°C° 0 mm 2 m/s 752 mmHg 44%
    23:00 +24°C° 0 mm 2 m/s 752 mmHg 52%
    Mostrar mais